Vorticity
11 12 12 11 10 8 7 5 4 3 3 2 2 2 2 2 2 2 2 3 6 10 15 22 26 28 26 20 15 11 7 5 4 3 3 3 2 2 3 4 4 4 4 4 4 4 4 3 3 2 0 0 2 5 7 9 14 16 12 7 6 8 8 6 5 4 3 3 4 6 7 7 5 4 2 2 3 3 3 3 2 2 2 2 3 3 4 5 6 6 7 9 9 8 7 7 7 7 7 7 6 6 6
10 11 11 12 11 10 9 8 7 6 5 4 3 3 3 3 2 2 2 2 2 4 7 13 20 25 28 26 22 17 12 8 6 4 4 4 4 3 3 3 4 4 4 3 3 3 4 4 3 3 2 1 1 3 5 9 13 14 4 0 2 6 8 7 6 5 4 4 4 5 7 6 5 4 3 3 3 4 3 3 3 2 2 2 2 3 3 4 5 6 6 7 8 8 7 7 7 7 7 7 6 6 6
10 10 10 10 11 11 10 10 9 8 7 6 5 4 4 3 3 2 2 2 1 2 3 6 11 18 24 27 26 22 18 13 9 6 5 5 5 4 4 3 3 4 4 4 3 3 3 4 4 4 3 2 1 1 3 7 10 7 -5 -6 -2 4 7 7 7 7 7 8 7 6 6 5 4 4 3 3 4 4 4 4 3 3 2 2 2 2 2 3 4 5 6 7 8 8 8 7 7 7 7 7 6 6 5
12 10 9 9 9 10 10 10 10 9 9 8 7 6 5 5 4 3 2 2 1 1 1 2 5 9 16 22 25 26 23 19 14 10 7 6 6 6 5 4 4 4 5 4 3 3 2 3 4 4 4 3 2 1 1 5 7 6 -2 -4 -1 3 5 6 7 8 11 12 11 10 8 5 4 3 3 3 3 4 4 4 3 3 3 2 2 2 2 3 3 4 5 6 7 9 9 8 7 7 7 6 6 5 5
14 12 10 9 9 9 9 10 10 10 10 9 9 8 7 7 6 5 4 3 2 2 1 1 2 4 7 14 20 24 25 22 19 15 10 7 6 6 6 5 5 4 4 5 4 3 2 2 3 4 4 4 3 2 1 2 4 7 7 6 6 6 5 6 7 8 9 10 12 13 12 7 4 2 2 2 2 3 4 4 4 3 3 2 2 2 2 2 2 3 4 5 7 9 12 10 9 7 6 6 5 5 5
16 15 13 12 10 10 9 9 9 9 10 10 10 9 9 8 7 7 6 5 4 3 2 1 1 1 2 6 12 19 24 24 22 19 15 10 8 6 6 6 6 5 4 5 5 4 3 2 2 3 4 5 5 4 2 1 2 5 9 12 12 10 7 6 6 6 5 7 9 11 12 8 5 2 1 1 2 2 4 4 4 4 3 2 2 2 2 2 2 2 3 4 6 9 13 13 10 7 6 6 5 5 4
17 16 16 14 13 12 10 9 9 9 9 9 10 10 10 10 9 8 7 7 6 4 3 2 1 1 0 2 5 11 18 22 23 22 19 14 10 7 6 6 6 6 5 5 5 5 4 3 2 2 3 4 5 5 4 2 2 3 7 12 14 13 9 7 6 6 3 4 7 10 12 10 7 4 2 1 1 2 3 4 4 4 3 2 2 2 2 2 2 1 1 2 5 9 14 13 11 8 7 6 5 5 4
16 17 17 16 15 14 12 11 9 9 8 8 9 9 10 10 10 9 9 8 7 6 5 4 3 2 1 0 2 5 10 17 21 23 22 18 14 10 7 6 6 6 5 5 5 6 6 4 3 2 2 3 4 5 6 4 2 2 4 9 13 14 12 9 8 7 7 7 9 11 12 11 9 6 4 2 1 1 2 3 4 4 4 3 2 2 2 2 2 1 0 0 4 9 14 13 11 9 8 7 6 5 5
15 16 16 16 16 15 14 13 11 10 8 8 8 8 9 10 10 10 10 10 9 8 8 6 5 4 2 1 1 1 3 9 15 20 22 21 18 14 10 7 6 6 6 5 5 6 6 5 4 3 2 3 4 5 6 5 3 1 1 6 10 13 13 10 9 9 10 9 9 9 8 9 10 9 7 4 2 1 2 2 3 4 4 3 2 2 2 2 2 2 2 1 2 6 12 12 12 11 9 8 7 6 6
13 14 15 15 15 15 15 14 13 11 10 9 8 8 8 9 9 10 10 10 10 10 9 9 8 6 5 3 2 1 0 3 8 14 20 21 20 18 13 10 7 6 6 6 5 6 6 6 6 5 3 3 3 4 5 5 4 2 0 2 6 10 11 9 9 9 9 5 1 -1 -3 4 8 11 10 6 3 2 2 1 2 3 4 3 3 2 2 2 2 3 4 3 2 3 7 11 12 12 11 9 8 7 6
11 13 14 14 14 14 14 14 14 13 12 10 9 8 8 8 8 8 9 9 10 10 10 10 9 9 8 6 5 3 1 1 3 7 13 18 20 20 17 13 10 7 6 6 5 5 6 6 6 6 4 3 3 3 4 5 4 3 0 0 2 5 8 8 8 8 8 4 0 -4 -5 -1 5 11 14 9 5 3 2 1 2 3 4 4 3 3 2 2 2 2 3 4 3 1 -1 5 10 13 12 10 8 7 6
10 11 13 14 14 14 14 13 13 13 13 12 11 9 8 8 8 8 8 8 9 9 10 10 10 10 10 9 8 6 4 2 1 2 6 12 16 19 19 16 13 10 7 6 6 5 5 6 6 6 6 4 3 3 4 4 4 3 1 0 0 2 4 5 6 6 6 7 6 5 3 4 7 11 15 11 7 5 3 2 1 2 3 4 4 3 2 2 2 2 2 3 4 2 -2 -2 3 8 12 12 10 8 7
9 10 11 12 13 14 14 14 13 13 13 13 12 11 10 9 8 8 8 8 8 8 9 9 9 10 10 10 10 8 7 5 3 2 2 6 11 15 18 18 16 13 10 8 6 5 5 5 6 6 6 5 4 3 3 4 4 3 2 1 0 0 1 2 3 4 4 6 9 14 20 20 17 15 15 12 9 7 6 3 2 2 3 3 4 4 3 3 2 2 2 3 4 4 2 -1 -2 0 6 10 11 10 8
9 9 10 11 12 13 14 14 14 13 12 12 12 12 11 10 9 8 8 8 8 8 8 8 8 9 9 10 10 10 9 8 6 4 2 3 5 9 14 16 17 16 14 11 8 6 5 5 5 6 7 6 5 4 3 3 4 3 3 2 1 -0 -0 0 1 1 1 3 10 24 42 40 31 20 15 12 9 8 8 5 3 2 2 3 4 4 4 3 3 2 2 2 4 5 6 3 -1 -3 -2 3 7 9 8
9 9 9 10 10 12 13 14 14 14 13 13 12 12 12 11 10 10 9 8 8 8 8 8 8 8 8 9 9 10 10 9 8 7 5 3 3 4 8 12 15 17 16 14 11 8 6 5 5 5 6 6 6 5 4 3 3 4 3 3 2 1 -0 -0 0 0 -0 0 8 24 47 36 22 11 11 9 8 7 8 6 4 3 2 2 3 4 4 4 3 3 3 3 3 4 6 5 3 -0 -3 -3 -0 3 4
10 10 10 10 10 10 12 13 14 15 15 14 13 12 12 11 11 10 10 9 9 9 9 9 9 8 8 8 8 9 9 9 9 9 8 6 4 3 3 6 10 14 16 16 15 12 9 7 5 5 5 6 6 6 4 4 4 4 4 3 2 1 1 0 0 0 1 -0 3 10 17 1 -7 -5 10 11 8 5 6 6 4 3 2 2 2 3 4 4 4 4 4 4 4 4 5 5 5 5 4 1 0 -1 -2
10 10 10 10 10 10 10 11 13 14 15 15 14 13 13 12 11 11 10 10 10 10 10 10 10 10 9 9 8 8 8 9 9 10 10 9 7 5 3 3 5 9 13 15 16 16 14 10 7 5 5 5 6 6 6 4 4 4 4 4 3 2 1 1 1 2 2 1 2 1 -5 -21 -21 -7 20 25 17 6 4 6 5 3 2 1 2 3 4 4 4 4 4 5 5 4 4 4 6 9 11 8 6 4 0
10 10 11 10 10 10 10 10 11 12 13 14 15 15 14 13 12 11 10 10 10 10 10 10 10 11 11 11 10 9 8 8 9 9 10 10 9 7 5 3 3 4 7 11 14 16 16 15 12 8 5 5 5 6 6 6 5 4 4 4 4 3 2 1 2 3 2 2 2 1 -3 -12 -10 2 23 30 23 11 4 6 6 5 2 1 1 2 4 4 4 4 3 4 5 5 4 5 8 11 13 12 11 10 9
11 11 11 11 11 11 10 10 11 11 12 13 14 14 14 14 13 13 12 11 10 10 10 10 10 11 11 12 12 12 11 10 9 9 9 10 10 9 8 6 4 3 4 6 9 13 15 16 16 13 8 6 5 5 6 6 6 5 4 4 4 4 3 2 1 2 3 3 3 3 1 -1 1 6 15 22 21 15 7 7 8 7 5 2 1 2 4 5 4 4 4 4 5 5 5 6 9 12 13 13 13 14 13
11 12 12 11 11 11 11 11 11 11 11 12 13 13 14 14 14 14 14 13 12 11 11 11 11 11 11 12 12 13 13 12 11 10 9 9 10 10 10 8 6 5 3 4 6 8 11 14 16 16 13 9 6 4 5 6 6 6 5 4 3 3 4 3 1 1 2 3 4 3 2 1 3 7 10 13 14 13 10 9 9 10 8 4 1 1 3 5 5 5 4 4 5 5 6 7 9 11 12 12 13 15 16
12 12 12 12 12 12 11 11 11 11 11 11 12 13 13 14 15 15 15 15 14 14 13 13 13 12 12 12 13 13 13 13 13 12 10 10 9 10 10 10 8 7 5 4 4 5 7 10 14 16 18 14 10 6 4 5 5 6 6 5 4 3 4 4 2 0 0 2 3 4 2 2 3 7 12 11 6 1 2 7 10 12 12 8 4 1 2 5 6 6 5 5 5 6 7 7 8 9 9 10 12 15 17
13 13 13 12 12 12 12 12 11 11 12 12 12 12 13 13 14 14 15 15 16 16 15 15 14 14 13 13 13 14 14 14 15 14 13 12 10 10 10 10 10 9 7 6 5 4 5 7 10 13 17 17 14 10 6 4 4 5 6 6 5 4 2 4 4 2 -0 1 2 4 3 2 2 5 11 17 8 -5 -12 -2 6 11 15 13 9 4 2 4 6 7 6 6 6 5 6 6 6 5 6 7 10 12 15
14 13 13 13 13 12 12 12 12 12 12 12 12 13 13 13 13 13 14 14 15 15 15 15 15 15 14 14 14 14 14 15 16 16 16 15 14 12 10 10 10 10 9 8 6 5 5 5 6 9 13 17 17 15 10 6 4 4 5 6 6 6 3 3 4 4 2 -0 1 3 5 3 3 3 7 16 11 -3 -18 -11 -1 8 15 18 14 8 2 4 6 7 8 7 6 4 3 3 2 2 2 4 6 8 10
14 14 13 13 13 13 12 12 12 12 11 12 12 12 12 12 12 12 13 13 13 14 14 14 15 15 15 14 14 14 14 15 16 16 17 18 18 16 14 11 10 10 10 9 8 7 6 5 6 6 9 13 16 17 15 10 7 4 4 5 6 7 6 4 4 5 4 2 1 1 4 5 5 5 5 9 6 -2 -15 -13 -6 4 14 18 16 11 3 4 6 8 8 8 7 4 2 1 -1 -1 0 2 3 5 7
14 14 13 13 13 13 12 12 12 12 11 11 11 11 11 11 11 11 12 12 13 13 14 14 14 14 15 14 14 14 14 14 15 16 16 18 19 20 19 16 13 11 10 9 9 8 7 6 6 6 6 9 13 16 18 15 11 7 4 4 5 6 7 6 5 5 5 4 2 1 2 4 6 7 7 7 6 2 -4 -6 -4 1 10 14 16 13 5 2 4 7 8 8 8 6 5 3 1 -0 0 2 3 4 6
14 14 13 13 13 12 12 12 12 12 12 12 12 11 11 10 10 10 10 10 11 11 12 13 13 14 15 15 15 14 14 14 14 14 15 16 18 20 22 21 19 16 12 10 9 9 8 7 7 6 6 7 9 13 16 17 15 11 7 4 4 4 6 6 6 5 5 4 4 2 2 3 5 6 8 8 8 7 6 6 4 3 6 10 14 14 7 2 3 6 7 7 7 8 8 6 5 3 2 3 4 5 7
13 13 13 13 13 12 12 12 12 12 12 11 11 11 10 9 9 9 8 8 8 8 8 9 10 11 13 13 14 14 14 14 14 13 13 14 15 17 19 22 23 22 18 14 11 9 8 8 7 7 7 7 7 9 12 16 17 15 11 7 5 4 5 6 6 5 5 4 4 3 3 3 4 5 6 7 8 10 14 17 14 7 3 6 11 13 8 3 3 5 6 5 5 6 7 6 5 5 4 5 6 6 7
13 13 12 12 12 12 12 12 11 11 10 9 8 7 7 7 6 6 7 7 7 7 6 7 7 8 8 10 11 12 13 13 14 14 13 13 13 13 15 18 21 24 24 21 16 12 9 8 7 7 7 7 7 8 9 12 15 17 15 11 7 5 4 5 5 5 5 4 4 3 3 3 3 3 4 5 8 15 27 28 19 7 -2 2 9 13 9 5 6 7 7 5 4 4 4 3 3 3 5 6 6 7 6
13 12 12 12 12 11 11 10 9 8 6 5 4 4 4 4 4 4 5 6 6 7 7 7 7 7 7 7 8 9 10 11 12 12 13 13 13 12 12 13 16 19 24 25 23 19 13 10 8 7 7 7 7 7 7 9 12 15 17 15 11 7 5 4 5 5 5 4 4 4 2 2 2 2 3 6 15 29 48 33 18 5 -2 1 9 14 11 8 10 12 10 6 4 4 4 1 -1 0 3 5 6 5 4
12 12 11 11 10 10 9 7 6 5 4 3 3 3 3 3 4 4 5 6 7 7 8 8 8 8 9 8 8 9 9 9 9 10 10 11 12 12 12 12 12 14 17 22 25 25 21 15 11 8 7 7 7 8 8 8 9 12 16 16 14 11 7 5 4 5 6 5 4 4 3 1 1 1 3 9 25 40 42 24 12 3 -4 -1 9 17 14 6 4 4 1 -5 -9 -8 -3 -5 -5 -3 1 4 4 3 2
11 11 11 10 9 9 7 6 5 4 3 3 3 3 3 3 4 5 5 6 7 8 9 10 10 10 10 10 10 10 10 10 9 9 9 9 10 10 11 11 11 11 12 15 20 24 26 22 17 12 8 7 7 8 8 8 8 10 12 15 16 14 11 7 5 5 5 5 5 4 4 2 1 1 2 15 32 38 20 13 8 3 -6 0 13 22 16 -1 -16 -26 -29 -29 -29 -27 -22 -17 -13 -7 -0 4 5 4 2
10 10 10 9 9 8 7 6 6 5 4 4 4 4 4 4 5 6 7 8 9 9 10 10 11 11 11 12 12 11 12 12 11 10 9 9 9 9 10 10 10 10 10 11 14 18 23 25 24 19 13 9 7 7 8 9 9 9 10 13 15 16 14 10 7 5 5 5 5 5 4 3 2 1 2 20 30 26 0 -1 -0 -0 -3 9 22 28 21 0 -11 -14 -10 -13 -13 -12 -12 -12 -11 -7 -1 4 8 9 8
11 10 10 9 9 8 7 6 6 5 4 5 6 6 6 7 7 8 9 10 11 11 11 12 12 12 12 13 12 12 13 13 13 13 12 11 10 10 9 9 9 9 9 9 10 12 16 21 24 24 20 14 10 8 8 9 9 9 9 10 13 15 16 13 10 7 5 5 5 5 5 4 2 2 3 21 27 19 0 -4 -5 -2 5 17 25 26 16 4 4 11 22 22 20 17 13 7 2 -0 1 6 10 14 16
11 11 10 10 9 7 6 6 6 5 5 6 7 8 8 8 9 10 11 11 12 12 13 13 13 13 13 13 13 13 13 14 14 14 14 13 12 11 11 10 10 10 9 9 9 9 11 14 19 23 24 20 15 11 8 9 9 10 9 9 11 13 15 15 13 10 7 6 5 5 5 5 3 3 4 18 22 18 6 2 2 4 9 16 17 13 6 3 6 12 18 24 28 28 24 18 11 6 4 7 11 16 20
11 11 10 9 8 7 6 5 5 6 6 7 8 9 9 9 10 11 12 12 12 12 13 13 13 13 13 13 13 13 13 13 13 13 14 14 13 13 12 11 11 10 10 10 9 9 9 10 14 18 22 23 20 16 11 10 10 10 10 9 10 11 13 14 14 13 10 8 6 4 4 4 4 4 4 14 20 20 12 4 3 5 6 4 1 -2 -6 -4 0 7 14 22 30 34 31 22 13 7 5 6 9 13 18
11 10 9 7 6 5 5 5 5 6 6 7 8 9 9 10 11 11 12 12 12 11 11 11 11 12 11 12 12 12 12 11 12 13 13 13 13 14 13 12 12 11 11 11 10 10 9 10 11 13 17 21 22 20 15 12 11 10 11 10 10 10 11 13 14 14 13 10 7 4 3 4 5 5 6 11 15 15 10 0 -5 -7 -8 -9 -9 -9 -11 -10 -5 2 10 20 31 38 37 25 14 6 4 3 5 8 11
10 8 7 5 5 4 5 5 5 5 6 7 8 9 10 11 11 11 11 11 11 10 10 10 10 10 10 10 10 10 10 10 10 11 12 13 13 13 14 14 13 12 11 11 11 11 11 10 10 11 13 17 20 21 19 16 13 12 11 11 10 10 10 11 13 14 13 11 8 5 3 4 5 6 8 11 12 10 2 -5 -11 -15 -15 -13 -10 -8 -8 -10 -6 -1 5 17 29 39 42 28 16 6 2 -0 -0 1 3
8 7 5 4 4 4 5 5 5 5 6 7 8 9 10 10 11 11 11 11 11 10 10 10 10 10 10 10 10 10 10 10 10 10 11 11 12 14 15 16 16 14 13 13 12 12 12 12 11 11 12 14 17 20 20 18 15 13 12 12 11 10 9 10 12 13 13 11 9 7 6 6 6 6 7 11 13 11 2 -7 -14 -17 -17 -13 -7 -4 -5 -6 -3 1 4 12 24 34 38 27 15 4 -2 -4 -5 -4 -2
8 6 5 5 5 5 5 5 5 5 5 6 7 8 9 10 10 11 11 11 11 11 11 11 11 11 11 11 11 11 11 11 11 11 11 11 12 13 14 16 17 18 17 16 14 12 12 13 13 12 12 13 15 18 20 19 18 15 13 12 11 11 10 10 11 12 13 12 10 9 10 9 8 6 6 10 14 14 6 -7 -14 -17 -14 -7 -3 -1 -4 -2 0 3 4 10 18 26 28 21 10 0 -4 -3 -2 0 3
7 6 6 6 6 6 6 5 5 5 5 5 6 8 9 10 11 12 12 12 12 12 13 13 13 12 12 12 12 12 12 12 12 12 13 13 13 13 13 15 16 18 20 19 17 15 13 13 13 13 13 13 15 16 18 20 19 17 14 13 11 11 10 10 11 12 13 12 11 11 12 13 11 8 6 11 14 13 5 -5 -10 -11 -5 1 3 1 -3 -0 3 5 5 9 15 19 19 13 6 1 1 5 8 12 14
7 6 5 5 5 5 4 4 4 3 4 5 7 8 10 12 13 14 14 14 14 13 13 14 14 13 13 12 13 13 13 13 13 13 13 14 14 14 13 14 15 17 20 21 21 19 17 16 15 15 15 15 15 16 17 19 20 20 17 14 12 11 11 10 11 11 12 13 12 11 11 14 13 10 8 12 12 8 -1 -5 -5 -2 4 7 5 1 -3 0 4 6 7 9 13 16 16 10 5 3 7 11 15 18 18
6 5 4 4 3 3 3 2 2 3 4 6 8 10 12 14 15 16 16 16 15 14 13 13 13 13 13 13 13 13 13 14 14 15 14 14 14 14 14 14 15 16 18 20 22 23 22 20 19 18 17 17 16 16 17 19 20 21 20 17 14 12 11 11 11 11 12 13 12 9 6 12 13 12 10 10 7 2 -6 -4 1 5 10 10 4 -3 -3 1 5 8 9 10 13 15 15 10 7 6 9 12 15 17 16
5 4 3 3 3 2 2 2 2 3 4 7 10 12 14 16 17 17 17 16 15 13 12 12 12 13 13 13 14 14 15 15 16 16 15 15 14 14 14 15 15 16 17 19 21 24 25 24 23 22 20 19 18 17 17 18 20 22 22 19 16 13 12 11 11 11 12 13 12 7 0 7 13 16 13 6 0 -3 -4 1 6 10 13 9 0 -6 -3 2 7 11 11 10 12 14 14 11 10 10 12 13 14 14 12
6 4 4 3 3 2 2 2 2 3 5 8 11 14 17 18 18 17 15 13 12 12 11 11 11 11 12 13 15 16 17 17 17 17 16 15 15 15 15 15 16 16 17 18 20 23 26 27 27 26 25 23 21 20 18 18 20 22 23 20 17 14 12 12 11 11 12 13 11 7 -2 6 16 22 15 5 -1 -3 -2 4 8 11 11 5 -2 -6 -2 4 10 13 12 11 12 13 12 11 10 11 14 15 16 14 10
6 6 5 4 4 3 2 2 2 4 6 10 13 16 18 18 16 14 12 10 9 9 10 10 10 10 11 13 15 17 20 20 19 17 16 16 15 15 15 16 17 17 18 19 20 22 25 28 29 30 29 27 25 23 20 19 20 22 24 21 18 15 13 12 12 12 12 12 11 7 1 10 19 22 13 7 4 3 2 4 8 11 12 5 -1 -2 2 8 12 13 11 11 11 11 10 9 9 10 13 17 18 15 10
7 6 6 5 4 3 2 2 3 5 7 11 14 16 18 16 14 11 8 7 6 7 9 11 11 11 12 13 16 18 22 22 21 18 16 15 14 15 16 16 17 17 18 19 20 21 24 26 29 30 31 30 29 27 23 21 22 23 25 22 19 16 13 13 12 12 12 12 11 8 4 10 14 13 6 7 10 11 7 3 6 13 19 11 5 4 9 12 13 12 10 10 8 7 8 9 7 7 11 15 16 15 9
7 6 6 5 4 3 2 2 3 6 8 12 15 16 16 14 11 8 6 5 5 5 6 10 12 14 15 16 18 21 24 24 22 19 16 14 13 14 15 16 16 17 18 18 19 20 22 25 27 28 30 31 31 30 27 24 24 25 26 22 19 16 14 13 12 12 12 12 10 7 1 4 3 2 2 8 14 15 7 0 6 19 32 24 15 11 13 13 11 9 7 7 6 5 9 9 7 6 7 10 12 11 5
7 7 6 5 4 3 3 3 4 6 9 12 15 16 16 12 9 6 4 3 3 4 5 8 12 16 17 19 22 25 26 25 23 20 16 14 13 14 16 16 16 17 18 18 19 20 22 22 24 25 27 29 30 31 30 28 27 26 26 23 20 17 14 13 13 12 12 11 10 6 -3 -6 -5 -2 3 11 16 16 6 2 13 32 45 34 22 13 12 9 7 7 7 7 5 4 9 9 9 7 4 5 7 6 -1
8 8 7 6 5 4 4 4 5 6 9 12 14 16 15 12 9 6 3 2 2 4 6 8 13 17 18 20 24 26 27 25 22 20 18 16 15 15 16 18 18 17 17 18 19 20 22 23 22 22 23 25 28 30 31 29 28 27 24 24 21 17 14 13 13 12 11 10 9 5 -3 -7 -5 1 8 16 20 17 6 5 17 32 41 34 20 7 3 5 6 7 7 7 4 4 7 9 9 7 3 1 2 1 -7
9 8 8 7 6 6 5 4 5 6 9 11 13 15 15 13 10 7 4 3 3 5 8 10 14 18 20 21 24 27 28 25 22 20 18 17 17 17 17 18 18 17 17 18 19 21 22 22 22 20 20 21 24 27 29 30 29 28 24 24 22 19 15 13 13 12 11 9 8 5 -0 -3 0 7 15 21 24 19 6 5 11 20 28 28 15 0 -5 4 6 7 8 7 4 3 6 8 9 8 3 0 0 -1 -7
10 9 8 7 7 6 5 4 5 6 7 10 12 14 15 14 13 10 7 6 6 7 9 12 15 18 24 23 24 26 27 24 22 20 18 16 17 18 18 18 17 17 18 18 19 20 22 22 21 20 19 20 22 25 27 29 29 27 23 23 24 22 16 14 12 12 10 8 6 4 2 1 5 13 21 22 21 16 3 2 3 10 27 29 15 -2 -9 3 6 5 7 6 3 2 5 9 11 10 3 1 1 1 -2
9 9 9 8 7 7 5 5 4 5 5 7 10 13 16 17 17 15 11 7 6 7 10 13 13 16 23 24 24 23 25 24 22 20 17 14 14 16 19 19 19 19 20 21 23 25 25 26 24 21 19 20 22 24 25 28 28 25 19 22 24 24 18 15 12 11 10 8 6 3 2 2 10 20 27 19 11 3 -5 -5 -5 6 37 36 18 -2 -7 2 4 4 6 4 2 2 7 12 14 11 3 4 3 3 4
8 9 9 9 8 7 6 6 5 4 4 5 7 11 15 19 20 19 15 9 6 6 8 14 16 16 18 20 20 20 23 23 22 20 16 12 12 15 19 19 18 17 20 25 32 38 40 32 28 24 20 21 22 22 24 27 26 21 14 24 28 26 20 16 13 11 10 8 5 3 0 1 9 19 25 13 4 -1 -4 -6 -8 2 38 39 17 -5 -8 0 3 4 6 2 0 2 10 16 15 10 5 6 6 5 6
6 8 9 9 9 8 7 7 5 4 4 4 6 8 12 18 22 21 15 8 5 5 8 14 19 21 19 20 20 20 20 20 21 20 16 12 11 12 14 11 10 13 21 26 32 34 29 20 24 34 38 30 25 24 24 27 21 15 17 34 37 31 22 17 13 11 10 8 5 2 -0 -2 1 6 7 3 5 10 12 5 -3 -1 20 29 11 -10 -11 0 5 6 4 1 0 3 13 16 13 8 8 8 6 4 3
4 6 8 8 8 8 8 7 5 4 4 4 5 7 11 18 21 19 11 4 3 5 9 14 20 24 23 21 21 20 18 18 20 22 17 11 9 8 9 9 9 13 24 31 31 23 4 -4 10 36 61 46 34 27 27 23 8 1 17 42 43 33 23 18 14 12 10 7 5 2 -1 -3 -4 -3 -2 1 7 16 21 16 8 0 -2 9 2 -8 -6 0 4 5 4 1 2 7 17 16 11 7 9 9 6 2 -1
3 4 6 7 8 8 9 7 5 5 5 6 6 7 11 18 19 15 7 3 3 5 9 14 19 23 27 24 21 20 19 20 23 24 19 10 5 4 7 8 10 16 27 26 17 1 -20 -26 -17 6 43 50 43 34 32 15 -5 -9 20 42 44 34 24 19 16 13 10 7 5 3 -1 -3 -4 -2 3 9 13 16 17 18 13 3 -11 -4 -4 -6 -4 2 5 5 5 1 4 12 22 18 11 7 9 7 3 -1 -1
2 3 4 6 8 9 10 7 5 5 6 7 8 9 12 17 18 13 6 4 4 5 9 15 18 22 26 25 22 20 20 24 26 26 20 11 7 5 4 5 9 16 24 22 13 1 -11 -17 -28 -19 34 53 48 35 35 4 -12 -4 34 45 43 34 25 20 16 13 10 8 5 2 -1 -4 -3 3 17 29 30 23 16 16 15 8 -4 0 2 2 0 5 6 6 3 1 6 15 22 16 11 8 8 2 -2 -3 0
3 3 3 5 8 10 10 7 5 4 5 8 9 11 15 19 18 13 6 5 5 6 10 16 20 22 22 22 21 20 21 26 28 26 18 11 7 5 4 7 11 15 16 12 10 7 -1 -14 -28 -12 62 64 47 28 24 -7 -8 10 36 43 40 32 25 20 16 13 11 8 5 2 -3 -7 -5 6 28 45 44 33 20 19 20 18 12 13 10 6 5 7 8 6 3 -1 6 15 19 11 9 8 7 -2 -5 -5 -3
5 3 3 6 8 10 10 7 5 4 3 7 10 13 18 21 19 13 6 6 7 8 11 17 21 23 21 21 20 20 20 24 24 23 17 12 9 8 9 13 16 17 17 13 9 1 -16 -24 -19 4 51 57 46 27 7 -14 -1 24 36 42 38 30 24 20 16 14 12 9 6 1 -5 -10 -7 4 24 36 36 29 22 22 27 30 30 24 15 6 6 8 7 5 0 -2 5 14 17 12 11 10 5 -3 -6 -6 -6
7 5 3 6 9 10 10 8 6 4 3 6 11 17 22 24 19 13 8 9 10 11 13 18 22 24 24 23 21 20 20 22 21 20 16 12 10 9 11 16 18 19 20 23 18 7 -11 -6 10 26 32 40 40 28 0 -15 3 27 32 38 38 33 27 21 17 14 12 9 6 1 -6 -12 -8 3 18 21 20 18 15 15 17 21 29 24 16 9 7 7 5 1 -4 -4 4 13 18 16 14 10 1 -6 -8 -7 -4
10 7 4 6 9 11 10 8 6 4 4 7 13 20 26 24 19 13 9 11 12 13 14 18 22 25 27 25 23 21 20 20 20 18 14 13 12 12 15 19 21 21 22 24 19 14 16 28 31 26 13 29 33 25 4 -8 7 27 27 32 34 33 29 26 21 16 12 9 6 1 -5 -10 -6 5 21 22 17 10 6 -4 -10 -7 5 12 13 11 9 7 3 -1 -7 -4 5 16 21 20 14 5 -6 -9 -10 -8 -0
Height
3092 3091 3091 3091 3091 3091 3091 3091 3092 3092 3092 3092 3092 3092 3092 3092 3092 3093 3093 3093 3093 3093 3093 3093 3094 3094 3095 3096 3097 3098 3099 3101 3103 3104 3105 3106 3107 3108 3109 3110 3111 3111 3112 3113 3114 3115 3116 3118 3118 3119 3119 3121 3122 3123 3124 3124 3125 3125 3126 3126 3127 3127 3128 3128 3128 3129 3130 3131 3132 3134 3135 3137 3138 3139 3139 3140 3140 3140 3141 3141 3142 3142 3142 3142 3143 3143 3143 3143 3143 3143 3143 3144 3145 3145 3145 3145 3146 3147 3148 3148 3149 3149 3149
3090 3089 3089 3089 3089 3089 3089 3089 3089 3090 3090 3090 3090 3090 3090 3091 3091 3091 3091 3091 3091 3091 3091 3091 3092 3092 3093 3094 3094 3095 3096 3098 3099 3101 3103 3104 3104 3105 3106 3107 3108 3109 3110 3111 3112 3113 3114 3115 3116 3117 3118 3119 3120 3121 3122 3123 3124 3124 3124 3124 3125 3126 3127 3127 3127 3127 3128 3129 3130 3131 3133 3135 3136 3137 3138 3138 3139 3139 3139 3140 3140 3141 3141 3141 3141 3142 3142 3142 3143 3142 3142 3143 3144 3144 3144 3144 3145 3146 3146 3147 3147 3148 3149
3088 3088 3087 3087 3087 3087 3087 3087 3087 3087 3088 3088 3088 3089 3089 3089 3089 3089 3089 3089 3089 3089 3089 3090 3090 3090 3091 3091 3092 3093 3094 3095 3096 3098 3099 3101 3102 3103 3104 3105 3106 3107 3108 3109 3110 3110 3111 3113 3114 3115 3116 3117 3119 3120 3121 3122 3123 3123 3123 3123 3124 3124 3125 3125 3125 3125 3126 3127 3128 3129 3131 3132 3134 3135 3136 3136 3137 3138 3138 3139 3139 3139 3140 3140 3140 3141 3141 3141 3142 3142 3142 3142 3143 3143 3143 3143 3144 3145 3145 3145 3146 3147 3147
3086 3085 3085 3085 3085 3085 3085 3085 3085 3085 3085 3085 3086 3086 3086 3087 3087 3087 3087 3088 3088 3088 3088 3088 3088 3089 3089 3089 3089 3090 3091 3092 3093 3095 3096 3098 3099 3100 3101 3102 3103 3104 3105 3106 3107 3108 3109 3110 3111 3113 3114 3115 3117 3118 3119 3120 3121 3122 3122 3122 3123 3123 3124 3124 3124 3124 3125 3125 3126 3127 3128 3130 3132 3133 3134 3134 3135 3136 3137 3137 3138 3138 3139 3139 3139 3139 3140 3140 3140 3141 3141 3141 3141 3141 3142 3142 3143 3143 3144 3144 3145 3146 3146
3084 3084 3083 3083 3083 3083 3083 3083 3083 3083 3083 3084 3084 3084 3084 3085 3085 3085 3085 3086 3086 3086 3086 3086 3086 3087 3087 3087 3088 3088 3089 3089 3090 3092 3093 3095 3096 3097 3098 3099 3100 3101 3103 3103 3104 3106 3107 3108 3109 3110 3112 3113 3114 3116 3117 3118 3119 3120 3120 3121 3121 3122 3122 3122 3122 3122 3123 3124 3124 3125 3126 3127 3129 3131 3132 3133 3134 3134 3135 3136 3136 3137 3137 3138 3138 3138 3139 3139 3139 3139 3140 3140 3140 3141 3141 3142 3142 3142 3143 3144 3144 3144 3145
3082 3082 3081 3081 3081 3081 3081 3081 3081 3081 3081 3081 3081 3082 3082 3082 3083 3083 3084 3084 3084 3084 3084 3084 3084 3085 3085 3086 3086 3086 3087 3087 3088 3089 3090 3092 3093 3094 3095 3096 3098 3099 3100 3101 3102 3103 3104 3105 3106 3108 3109 3111 3112 3114 3115 3116 3117 3118 3119 3119 3119 3120 3121 3120 3120 3120 3122 3122 3123 3124 3124 3125 3127 3129 3130 3131 3132 3132 3133 3134 3135 3136 3136 3136 3137 3137 3137 3138 3138 3138 3139 3139 3139 3140 3140 3140 3141 3141 3142 3143 3143 3144 3144
3080 3080 3079 3079 3079 3079 3079 3079 3079 3079 3079 3079 3079 3079 3079 3080 3080 3081 3081 3082 3082 3082 3082 3082 3083 3083 3083 3084 3084 3084 3084 3085 3086 3087 3088 3089 3090 3091 3093 3094 3095 3096 3097 3099 3099 3100 3102 3103 3104 3105 3107 3109 3110 3112 3113 3114 3115 3116 3117 3117 3118 3119 3119 3119 3118 3118 3119 3121 3121 3122 3123 3124 3124 3126 3127 3129 3129 3130 3131 3132 3133 3134 3135 3135 3135 3136 3136 3136 3137 3137 3138 3138 3139 3139 3139 3139 3140 3140 3141 3141 3142 3142 3143
3079 3078 3078 3078 3077 3077 3077 3077 3077 3077 3077 3077 3077 3077 3077 3078 3078 3078 3079 3079 3079 3080 3080 3080 3081 3081 3081 3082 3082 3083 3083 3083 3084 3084 3085 3086 3087 3089 3090 3091 3092 3094 3095 3096 3097 3098 3099 3100 3101 3103 3104 3106 3108 3109 3111 3112 3113 3114 3114 3115 3116 3117 3117 3117 3117 3117 3117 3119 3120 3120 3121 3122 3123 3124 3125 3126 3127 3128 3129 3130 3131 3132 3133 3134 3134 3134 3134 3135 3135 3136 3136 3137 3138 3138 3138 3139 3139 3139 3140 3140 3141 3141 3142
3077 3077 3076 3076 3075 3075 3075 3075 3075 3075 3075 3075 3075 3075 3075 3075 3076 3076 3076 3077 3077 3078 3078 3078 3079 3079 3079 3080 3080 3080 3081 3081 3082 3083 3083 3084 3085 3086 3087 3088 3089 3091 3092 3094 3094 3095 3096 3097 3099 3100 3102 3103 3105 3107 3108 3109 3111 3112 3113 3113 3114 3115 3115 3115 3115 3115 3116 3117 3118 3118 3119 3120 3121 3122 3123 3124 3125 3126 3127 3128 3129 3130 3131 3132 3133 3133 3133 3134 3134 3134 3134 3135 3136 3137 3137 3138 3138 3138 3139 3139 3139 3140 3141
3075 3075 3074 3074 3074 3073 3073 3073 3073 3073 3073 3073 3073 3073 3073 3074 3074 3074 3074 3074 3075 3075 3075 3076 3076 3077 3077 3078 3078 3079 3079 3079 3080 3080 3081 3082 3082 3083 3084 3086 3087 3088 3089 3091 3092 3093 3094 3095 3096 3098 3099 3101 3102 3104 3106 3107 3108 3109 3110 3111 3112 3113 3114 3113 3113 3114 3114 3115 3117 3118 3118 3118 3119 3120 3121 3122 3123 3124 3125 3126 3127 3129 3129 3130 3131 3131 3132 3132 3133 3133 3133 3134 3134 3135 3136 3137 3137 3137 3138 3138 3138 3139 3139
3074 3073 3072 3072 3072 3071 3071 3071 3071 3071 3071 3071 3071 3071 3071 3071 3071 3071 3072 3072 3072 3073 3073 3073 3074 3074 3075 3076 3076 3076 3077 3077 3078 3079 3079 3079 3080 3081 3082 3083 3084 3085 3087 3088 3089 3091 3092 3093 3094 3095 3096 3098 3099 3101 3103 3104 3106 3107 3108 3109 3110 3111 3112 3112 3112 3112 3113 3114 3115 3117 3117 3117 3117 3118 3119 3119 3120 3121 3123 3124 3125 3126 3128 3129 3129 3129 3130 3131 3131 3132 3132 3132 3133 3134 3134 3135 3136 3136 3136 3137 3137 3138 3138
3072 3071 3070 3070 3070 3069 3069 3069 3069 3069 3069 3069 3069 3069 3069 3069 3069 3069 3069 3069 3070 3070 3070 3071 3071 3072 3072 3073 3074 3074 3074 3075 3076 3076 3077 3077 3078 3079 3080 3080 3082 3083 3084 3085 3087 3088 3089 3090 3091 3092 3094 3095 3097 3098 3099 3101 3103 3104 3106 3107 3109 3109 3110 3110 3110 3110 3111 3111 3113 3114 3116 3116 3115 3115 3116 3117 3118 3119 3120 3122 3123 3124 3126 3127 3127 3128 3129 3129 3130 3130 3131 3130 3131 3132 3133 3134 3134 3135 3135 3136 3136 3137 3137
3070 3069 3069 3068 3068 3068 3067 3067 3067 3067 3066 3066 3066 3067 3067 3067 3067 3067 3067 3067 3068 3068 3068 3068 3069 3069 3069 3070 3071 3072 3072 3073 3073 3074 3075 3075 3076 3077 3078 3078 3079 3080 3081 3083 3084 3085 3087 3088 3089 3090 3091 3093 3094 3095 3097 3098 3100 3102 3104 3105 3106 3107 3108 3108 3109 3109 3109 3109 3110 3112 3113 3114 3113 3113 3114 3115 3116 3117 3119 3120 3121 3123 3124 3125 3125 3126 3127 3128 3128 3129 3129 3130 3130 3131 3132 3132 3133 3134 3135 3135 3135 3135 3136
3068 3068 3067 3066 3066 3066 3065 3065 3065 3064 3064 3064 3064 3064 3064 3064 3065 3065 3065 3065 3065 3065 3065 3066 3066 3066 3067 3067 3068 3069 3069 3070 3070 3071 3072 3073 3074 3074 3075 3076 3077 3078 3079 3080 3081 3083 3084 3086 3087 3088 3089 3090 3092 3093 3094 3095 3097 3099 3101 3103 3104 3105 3106 3106 3107 3107 3108 3108 3109 3109 3111 3112 3112 3111 3110 3112 3114 3115 3116 3118 3119 3121 3122 3123 3124 3124 3125 3126 3127 3128 3129 3129 3129 3130 3130 3131 3131 3132 3133 3134 3134 3134 3135
3067 3066 3065 3065 3064 3064 3063 3063 3063 3063 3062 3062 3062 3062 3062 3062 3062 3062 3062 3062 3063 3063 3063 3063 3064 3064 3064 3064 3065 3066 3066 3067 3067 3068 3069 3070 3071 3072 3073 3074 3074 3075 3076 3077 3078 3080 3082 3083 3084 3085 3086 3088 3089 3090 3092 3093 3094 3096 3098 3100 3101 3102 3103 3104 3104 3105 3106 3106 3107 3108 3110 3111 3112 3110 3108 3109 3110 3113 3114 3116 3118 3119 3120 3122 3122 3123 3124 3124 3125 3126 3127 3128 3128 3129 3129 3129 3130 3131 3132 3132 3133 3133 3134
3065 3064 3064 3063 3062 3062 3061 3061 3061 3060 3060 3060 3060 3060 3059 3059 3059 3059 3059 3060 3060 3060 3060 3061 3061 3061 3062 3062 3062 3063 3063 3064 3064 3065 3066 3067 3068 3069 3070 3071 3072 3073 3074 3074 3075 3077 3079 3081 3082 3083 3084 3085 3086 3087 3089 3090 3091 3093 3095 3097 3098 3099 3100 3101 3102 3103 3104 3104 3106 3107 3108 3109 3109 3108 3106 3107 3108 3110 3112 3114 3116 3117 3119 3120 3121 3121 3122 3123 3124 3125 3126 3126 3127 3127 3128 3128 3129 3129 3130 3131 3131 3132 3133
3064 3063 3062 3061 3061 3060 3059 3059 3059 3058 3058 3058 3058 3058 3057 3057 3057 3057 3057 3057 3057 3057 3058 3058 3058 3059 3059 3059 3059 3060 3060 3061 3062 3063 3064 3064 3065 3066 3067 3068 3069 3070 3070 3071 3073 3074 3076 3078 3079 3080 3081 3083 3084 3085 3086 3087 3089 3090 3092 3094 3095 3096 3098 3099 3100 3101 3102 3103 3104 3105 3106 3106 3105 3105 3105 3107 3108 3109 3111 3112 3114 3115 3117 3118 3119 3120 3120 3121 3122 3124 3124 3125 3126 3126 3126 3127 3128 3128 3129 3129 3130 3130 3131
3062 3061 3060 3059 3059 3058 3058 3057 3057 3056 3056 3056 3056 3055 3055 3055 3055 3055 3054 3054 3055 3055 3055 3055 3055 3055 3056 3056 3057 3057 3057 3058 3059 3060 3061 3061 3062 3063 3064 3065 3065 3066 3067 3069 3070 3071 3073 3075 3076 3078 3079 3080 3081 3082 3084 3084 3086 3088 3089 3091 3092 3094 3095 3096 3097 3099 3099 3100 3102 3103 3104 3104 3104 3105 3106 3107 3108 3109 3110 3111 3112 3113 3115 3116 3118 3119 3119 3120 3121 3122 3123 3124 3124 3125 3125 3125 3126 3127 3127 3128 3129 3129 3130
3060 3059 3059 3058 3057 3057 3056 3055 3055 3054 3054 3054 3054 3053 3053 3053 3053 3053 3052 3052 3052 3052 3052 3052 3053 3053 3053 3053 3054 3054 3054 3055 3056 3057 3057 3058 3059 3060 3061 3061 3062 3063 3064 3066 3067 3068 3069 3071 3073 3074 3076 3077 3078 3079 3081 3082 3084 3085 3087 3088 3090 3091 3092 3093 3094 3096 3097 3098 3099 3100 3101 3102 3103 3104 3105 3105 3106 3107 3108 3109 3110 3111 3112 3114 3115 3117 3117 3118 3119 3120 3121 3122 3123 3123 3124 3124 3125 3125 3126 3126 3127 3128 3129
3059 3058 3057 3056 3055 3055 3054 3054 3053 3053 3052 3052 3051 3051 3051 3050 3050 3050 3050 3050 3050 3050 3050 3050 3050 3050 3050 3050 3050 3051 3052 3052 3053 3054 3054 3055 3056 3057 3058 3058 3059 3060 3061 3063 3064 3065 3066 3068 3069 3071 3073 3074 3075 3077 3078 3079 3081 3083 3084 3085 3087 3089 3089 3090 3092 3094 3095 3096 3096 3097 3098 3099 3100 3102 3104 3104 3104 3103 3104 3105 3107 3108 3109 3111 3113 3114 3115 3116 3117 3119 3120 3121 3121 3122 3123 3123 3123 3124 3124 3125 3125 3126 3127
3057 3056 3055 3054 3054 3053 3052 3052 3051 3051 3050 3050 3049 3049 3049 3049 3048 3048 3048 3048 3048 3048 3048 3048 3048 3048 3047 3047 3048 3048 3048 3049 3049 3050 3051 3052 3053 3054 3054 3055 3056 3057 3058 3059 3060 3062 3063 3064 3066 3068 3069 3071 3072 3074 3075 3076 3078 3079 3081 3082 3084 3086 3087 3088 3089 3091 3092 3093 3094 3094 3096 3097 3098 3099 3101 3103 3101 3099 3100 3102 3104 3105 3106 3109 3110 3112 3113 3114 3115 3116 3118 3119 3120 3120 3121 3122 3122 3122 3123 3123 3124 3125 3126
3055 3054 3053 3053 3052 3051 3050 3050 3049 3049 3049 3048 3048 3047 3047 3047 3046 3046 3046 3046 3046 3045 3045 3045 3045 3045 3045 3045 3045 3045 3045 3046 3046 3047 3048 3049 3049 3050 3051 3052 3053 3054 3055 3056 3057 3058 3059 3061 3062 3064 3066 3067 3069 3070 3072 3074 3075 3076 3078 3079 3081 3083 3084 3086 3087 3088 3089 3091 3092 3093 3094 3095 3096 3097 3099 3101 3101 3100 3099 3099 3101 3102 3104 3105 3108 3110 3111 3112 3114 3114 3116 3117 3118 3119 3120 3120 3120 3121 3121 3122 3123 3124 3124
3053 3052 3051 3051 3050 3049 3049 3048 3048 3047 3047 3046 3046 3046 3045 3045 3044 3044 3044 3044 3044 3043 3043 3043 3043 3043 3043 3043 3043 3043 3043 3043 3043 3044 3044 3045 3046 3047 3048 3049 3050 3051 3052 3053 3054 3055 3056 3058 3059 3060 3062 3064 3066 3067 3069 3071 3072 3074 3075 3076 3078 3079 3082 3084 3085 3086 3087 3088 3089 3091 3092 3092 3094 3095 3096 3098 3100 3100 3098 3097 3098 3099 3101 3103 3105 3107 3109 3110 3112 3113 3114 3115 3117 3118 3119 3119 3119 3119 3120 3120 3121 3122 3123
3051 3050 3050 3049 3048 3048 3047 3047 3046 3046 3045 3045 3044 3044 3044 3043 3043 3042 3042 3042 3041 3041 3041 3041 3041 3040 3040 3040 3040 3040 3040 3040 3040 3041 3041 3042 3043 3043 3044 3045 3046 3047 3049 3049 3051 3052 3053 3054 3056 3057 3059 3061 3062 3064 3065 3067 3069 3071 3072 3073 3075 3077 3079 3081 3083 3084 3085 3086 3087 3089 3090 3090 3091 3093 3094 3095 3097 3097 3096 3095 3094 3095 3098 3100 3102 3104 3106 3109 3110 3111 3112 3114 3114 3116 3117 3118 3118 3118 3119 3119 3120 3121 3121
3050 3049 3048 3048 3047 3046 3046 3045 3044 3044 3044 3043 3043 3042 3042 3041 3041 3040 3040 3040 3040 3039 3039 3039 3039 3038 3038 3038 3038 3038 3038 3038 3038 3038 3038 3039 3039 3040 3041 3042 3043 3044 3045 3046 3047 3049 3049 3051 3052 3054 3055 3057 3059 3060 3062 3064 3066 3067 3069 3070 3072 3074 3076 3078 3080 3082 3083 3084 3085 3086 3087 3088 3089 3090 3091 3092 3094 3094 3093 3093 3092 3092 3095 3097 3099 3101 3104 3106 3108 3109 3110 3111 3113 3114 3115 3116 3116 3117 3117 3118 3119 3119 3120
3048 3048 3047 3046 3045 3045 3044 3044 3043 3043 3042 3041 3041 3041 3040 3040 3039 3039 3039 3038 3038 3038 3037 3037 3036 3036 3036 3036 3035 3035 3035 3035 3035 3035 3035 3035 3036 3037 3038 3039 3039 3040 3041 3043 3044 3045 3046 3048 3049 3050 3052 3054 3055 3057 3059 3060 3062 3064 3065 3067 3069 3071 3073 3075 3077 3079 3080 3082 3083 3084 3084 3086 3087 3088 3089 3090 3091 3091 3091 3090 3089 3089 3093 3095 3097 3099 3101 3104 3106 3107 3109 3110 3111 3112 3113 3114 3114 3115 3115 3116 3117 3118 3118
3047 3046 3045 3045 3044 3044 3043 3042 3042 3041 3040 3040 3039 3039 3039 3038 3037 3037 3036 3036 3036 3036 3035 3035 3034 3034 3034 3033 3033 3033 3033 3033 3033 3032 3033 3033 3033 3034 3034 3035 3036 3037 3038 3039 3040 3041 3043 3044 3045 3047 3049 3050 3052 3053 3055 3057 3059 3060 3062 3064 3066 3067 3069 3071 3074 3076 3078 3079 3080 3081 3082 3083 3084 3085 3086 3087 3089 3089 3088 3088 3087 3087 3089 3092 3094 3095 3098 3102 3104 3105 3107 3108 3109 3110 3111 3112 3112 3113 3114 3114 3115 3116 3117
3045 3044 3044 3043 3043 3042 3042 3041 3040 3040 3039 3039 3038 3038 3037 3037 3036 3035 3035 3034 3034 3033 3033 3033 3032 3032 3031 3031 3031 3030 3030 3030 3030 3030 3030 3030 3030 3030 3031 3032 3033 3034 3034 3035 3036 3038 3039 3040 3042 3043 3045 3046 3048 3049 3051 3053 3055 3057 3059 3061 3062 3064 3066 3068 3070 3072 3075 3076 3077 3078 3079 3081 3081 3082 3084 3085 3087 3088 3086 3086 3084 3083 3085 3089 3091 3094 3096 3099 3101 3103 3104 3106 3107 3108 3108 3109 3110 3111 3112 3113 3114 3114 3115
3043 3043 3042 3042 3041 3041 3040 3039 3039 3039 3038 3037 3037 3036 3035 3035 3034 3034 3033 3032 3032 3031 3030 3030 3029 3029 3029 3028 3028 3028 3027 3027 3027 3027 3027 3027 3027 3027 3028 3028 3029 3030 3031 3032 3033 3034 3035 3036 3038 3039 3041 3043 3044 3046 3047 3049 3051 3053 3055 3057 3059 3061 3062 3064 3067 3069 3071 3073 3074 3076 3077 3078 3079 3080 3081 3083 3086 3086 3082 3083 3081 3080 3082 3086 3089 3091 3094 3096 3098 3100 3102 3103 3104 3105 3106 3107 3108 3109 3110 3111 3112 3113 3114
3042 3041 3040 3040 3039 3039 3039 3038 3037 3037 3036 3035 3035 3034 3034 3033 3032 3032 3031 3030 3029 3029 3028 3027 3027 3026 3026 3025 3025 3025 3024 3024 3024 3024 3024 3024 3024 3024 3024 3025 3026 3026 3027 3028 3029 3030 3031 3033 3034 3035 3037 3039 3040 3042 3044 3045 3047 3049 3052 3054 3055 3057 3059 3061 3063 3065 3068 3070 3072 3073 3074 3075 3076 3077 3079 3081 3084 3083 3078 3080 3080 3078 3079 3083 3086 3089 3091 3093 3094 3096 3098 3100 3102 3103 3104 3105 3106 3107 3108 3109 3110 3111 3112
3040 3039 3039 3038 3038 3037 3037 3036 3035 3035 3034 3033 3033 3032 3031 3030 3030 3029 3028 3028 3027 3026 3025 3024 3024 3023 3023 3022 3022 3022 3021 3021 3020 3021 3021 3021 3021 3021 3021 3022 3022 3023 3024 3024 3025 3026 3027 3029 3030 3031 3033 3035 3037 3039 3040 3042 3044 3046 3048 3050 3052 3054 3055 3057 3059 3061 3064 3067 3069 3070 3071 3072 3073 3074 3076 3079 3081 3080 3076 3076 3076 3076 3078 3081 3084 3086 3088 3089 3091 3093 3095 3097 3099 3101 3102 3103 3104 3105 3106 3107 3108 3109 3110
3039 3038 3038 3037 3036 3035 3035 3034 3033 3033 3032 3031 3030 3029 3029 3028 3027 3026 3025 3024 3024 3023 3022 3021 3020 3020 3019 3019 3019 3019 3018 3018 3017 3017 3017 3017 3017 3018 3018 3018 3019 3019 3020 3021 3022 3023 3024 3025 3026 3028 3029 3031 3033 3035 3037 3038 3040 3042 3044 3046 3048 3050 3052 3053 3055 3058 3060 3063 3065 3067 3068 3069 3071 3072 3074 3077 3079 3078 3074 3073 3074 3075 3076 3080 3082 3084 3085 3088 3091 3094 3094 3096 3098 3099 3100 3101 3102 3103 3104 3105 3106 3107 3108
3038 3037 3036 3035 3034 3034 3033 3032 3031 3030 3029 3028 3027 3027 3026 3025 3024 3023 3022 3021 3020 3019 3019 3018 3017 3016 3016 3015 3015 3015 3015 3014 3014 3014 3014 3014 3014 3014 3014 3014 3015 3016 3016 3017 3018 3019 3020 3021 3022 3024 3025 3027 3029 3031 3033 3034 3036 3038 3040 3043 3044 3046 3048 3050 3052 3055 3057 3060 3062 3064 3065 3067 3068 3069 3071 3074 3074 3072 3069 3070 3073 3074 3075 3078 3080 3082 3085 3088 3091 3093 3094 3094 3095 3096 3097 3098 3099 3101 3102 3103 3104 3105 3106
3036 3035 3034 3034 3033 3032 3031 3030 3029 3028 3027 3026 3025 3024 3023 3022 3021 3020 3019 3019 3018 3017 3016 3015 3014 3013 3013 3012 3012 3011 3011 3011 3011 3011 3011 3011 3011 3010 3010 3011 3011 3012 3012 3013 3014 3015 3016 3017 3018 3019 3021 3023 3025 3027 3029 3031 3033 3034 3036 3039 3041 3043 3045 3046 3049 3051 3054 3056 3059 3061 3062 3064 3065 3067 3069 3071 3071 3068 3066 3068 3071 3073 3074 3076 3078 3080 3084 3086 3087 3088 3089 3090 3091 3092 3093 3094 3096 3098 3099 3100 3101 3103 3104
3034 3034 3033 3032 3031 3030 3029 3028 3027 3026 3025 3024 3023 3022 3021 3019 3019 3018 3017 3016 3015 3014 3013 3012 3011 3010 3009 3009 3009 3008 3008 3007 3007 3007 3007 3007 3007 3007 3007 3007 3007 3008 3008 3009 3010 3011 3012 3013 3014 3016 3017 3019 3020 3023 3024 3027 3029 3031 3033 3035 3037 3039 3041 3043 3045 3047 3049 3052 3055 3058 3059 3061 3063 3064 3066 3068 3068 3065 3064 3065 3068 3069 3071 3073 3076 3079 3081 3083 3084 3085 3086 3087 3088 3089 3090 3092 3093 3095 3096 3098 3099 3101 3103
3034 3033 3032 3031 3030 3029 3028 3027 3025 3024 3023 3022 3021 3019 3019 3017 3016 3015 3014 3014 3013 3012 3011 3009 3009 3008 3007 3006 3005 3005 3005 3004 3004 3003 3004 3004 3004 3004 3004 3004 3004 3004 3004 3005 3006 3007 3008 3009 3010 3012 3013 3015 3016 3018 3020 3023 3025 3027 3029 3031 3033 3035 3037 3039 3041 3043 3046 3049 3051 3054 3056 3058 3060 3061 3063 3065 3065 3063 3062 3064 3065 3067 3069 3071 3074 3077 3079 3080 3081 3082 3083 3084 3085 3087 3088 3089 3091 3093 3094 3095 3097 3099 3101
3032 3032 3031 3030 3029 3028 3026 3025 3024 3023 3021 3020 3019 3018 3016 3015 3014 3013 3012 3011 3010 3009 3008 3007 3006 3005 3004 3003 3002 3002 3001 3001 3000 3000 3000 3000 3000 3000 3000 3000 3000 3000 3000 3001 3001 3002 3004 3005 3006 3008 3009 3011 3012 3014 3016 3018 3021 3023 3025 3027 3029 3031 3033 3035 3038 3040 3042 3045 3048 3050 3053 3055 3057 3058 3060 3062 3064 3062 3060 3061 3062 3065 3068 3070 3073 3076 3078 3079 3079 3080 3081 3082 3083 3084 3086 3088 3089 3091 3092 3094 3095 3098 3099
3031 3030 3029 3028 3027 3026 3024 3023 3022 3021 3019 3019 3017 3016 3014 3013 3012 3011 3009 3008 3007 3006 3005 3004 3003 3002 3001 3000 2999 2998 2998 2997 2997 2996 2996 2996 2996 2996 2996 2996 2996 2996 2996 2997 2997 2998 2999 3000 3002 3004 3005 3007 3008 3010 3012 3014 3016 3019 3021 3024 3025 3027 3029 3031 3034 3037 3039 3042 3045 3048 3050 3051 3053 3055 3057 3059 3062 3063 3059 3059 3061 3064 3066 3069 3072 3074 3075 3076 3077 3078 3079 3080 3081 3083 3084 3086 3088 3090 3091 3092 3094 3095 3097
3029 3029 3028 3026 3025 3024 3022 3021 3020 3019 3018 3017 3016 3014 3013 3011 3010 3008 3007 3005 3004 3003 3002 3001 3000 2999 2998 2997 2996 2995 2994 2994 2993 2992 2992 2992 2992 2992 2992 2992 2992 2993 2993 2993 2993 2994 2995 2996 2998 2999 3001 3003 3004 3006 3007 3009 3011 3014 3017 3019 3022 3024 3025 3028 3030 3033 3036 3039 3041 3044 3046 3048 3050 3052 3054 3055 3060 3063 3061 3059 3061 3064 3066 3069 3071 3072 3073 3073 3074 3075 3077 3078 3079 3081 3083 3085 3087 3088 3089 3090 3092 3093 3095
3028 3027 3026 3024 3023 3022 3020 3019 3018 3017 3016 3015 3014 3012 3010 3009 3007 3006 3004 3003 3001 3000 2999 2998 2997 2996 2995 2994 2993 2992 2991 2990 2989 2989 2988 2988 2987 2987 2987 2988 2988 2988 2989 2989 2989 2990 2990 2992 2993 2995 2997 2999 3000 3002 3003 3005 3007 3010 3013 3015 3018 3020 3022 3024 3027 3030 3033 3035 3038 3041 3043 3045 3047 3049 3051 3053 3057 3060 3061 3060 3061 3063 3065 3067 3068 3069 3070 3071 3072 3073 3075 3076 3078 3079 3081 3083 3084 3086 3088 3089 3090 3091 3093
3026 3025 3024 3023 3021 3020 3019 3018 3016 3015 3014 3013 3011 3010 3008 3006 3004 3003 3001 3000 2999 2998 2997 2995 2994 2993 2992 2991 2990 2989 2988 2987 2987 2986 2985 2984 2984 2983 2983 2983 2983 2984 2984 2985 2985 2986 2987 2988 2989 2990 2992 2994 2996 2997 2999 3001 3003 3006 3008 3011 3014 3016 3019 3021 3024 3027 3029 3032 3035 3038 3040 3043 3044 3046 3048 3051 3054 3057 3059 3059 3059 3061 3062 3064 3065 3066 3067 3069 3070 3071 3073 3074 3076 3078 3079 3081 3083 3085 3086 3087 3088 3090 3091
3025 3024 3023 3022 3020 3019 3018 3016 3015 3013 3012 3010 3009 3007 3005 3004 3002 3000 2999 2998 2996 2995 2994 2993 2992 2991 2989 2989 2988 2986 2985 2984 2984 2983 2982 2981 2981 2980 2979 2979 2979 2979 2979 2980 2981 2982 2983 2984 2985 2986 2988 2989 2992 2993 2995 2997 2999 3001 3004 3007 3010 3013 3015 3018 3021 3023 3026 3029 3032 3035 3037 3039 3042 3044 3046 3048 3052 3054 3056 3057 3058 3059 3060 3061 3062 3063 3065 3067 3068 3070 3071 3073 3074 3076 3078 3080 3082 3084 3085 3085 3087 3088 3090
3024 3023 3022 3020 3019 3018 3016 3014 3013 3011 3009 3008 3006 3004 3003 3001 2999 2998 2996 2995 2994 2993 2992 2990 2989 2988 2986 2985 2984 2984 2983 2981 2981 2980 2979 2978 2978 2977 2976 2976 2975 2975 2975 2976 2978 2979 2979 2979 2981 2982 2983 2985 2987 2989 2991 2994 2995 2998 3000 3003 3006 3009 3012 3015 3017 3020 3023 3026 3029 3032 3035 3037 3039 3041 3043 3046 3049 3052 3053 3055 3056 3058 3059 3059 3060 3061 3063 3064 3066 3068 3069 3071 3073 3074 3077 3079 3080 3082 3083 3084 3085 3087 3088
3023 3021 3020 3019 3018 3016 3014 3013 3011 3009 3008 3006 3004 3002 3001 2999 2997 2996 2994 2993 2991 2990 2989 2988 2986 2985 2983 2982 2981 2980 2980 2979 2978 2977 2976 2975 2975 2974 2974 2973 2973 2972 2972 2973 2973 2974 2975 2975 2977 2978 2979 2981 2983 2985 2987 2989 2992 2994 2996 2999 3002 3005 3008 3011 3014 3017 3020 3023 3026 3029 3032 3035 3038 3040 3041 3043 3046 3049 3050 3053 3054 3056 3058 3058 3058 3059 3060 3062 3064 3066 3068 3069 3071 3073 3075 3077 3079 3081 3082 3082 3083 3085 3086
3021 3020 3019 3017 3016 3014 3013 3011 3009 3008 3006 3004 3003 3001 2999 2997 2995 2994 2992 2991 2989 2988 2986 2985 2984 2982 2980 2979 2978 2978 2977 2976 2975 2974 2973 2973 2972 2972 2971 2971 2970 2970 2970 2970 2970 2970 2971 2972 2973 2974 2975 2977 2979 2981 2984 2986 2988 2990 2992 2995 2998 3001 3005 3008 3011 3014 3017 3020 3023 3026 3030 3033 3036 3038 3039 3042 3044 3046 3048 3050 3052 3054 3055 3056 3056 3056 3059 3060 3062 3064 3066 3068 3069 3072 3074 3075 3078 3079 3080 3081 3082 3083 3085
3019 3018 3017 3016 3014 3013 3011 3010 3008 3006 3005 3003 3001 2999 2997 2995 2994 2992 2990 2989 2987 2986 2984 2982 2981 2979 2978 2977 2976 2975 2974 2974 2973 2972 2971 2970 2969 2969 2969 2969 2969 2968 2968 2967 2967 2968 2968 2969 2969 2970 2971 2973 2975 2977 2980 2982 2984 2987 2989 2991 2994 2998 3001 3004 3008 3011 3014 3017 3020 3024 3027 3030 3033 3035 3038 3039 3041 3043 3045 3047 3049 3050 3052 3053 3053 3054 3056 3058 3059 3062 3064 3066 3068 3070 3072 3074 3076 3078 3079 3080 3081 3082 3083
3019 3017 3016 3014 3013 3012 3010 3008 3006 3004 3003 3001 2999 2997 2995 2994 2992 2990 2988 2987 2985 2983 2982 2980 2978 2977 2976 2974 2974 2973 2972 2971 2970 2969 2968 2968 2967 2967 2967 2966 2966 2966 2965 2965 2965 2965 2965 2965 2966 2967 2968 2969 2971 2974 2976 2979 2981 2984 2986 2988 2990 2994 2998 3001 3004 3008 3011 3014 3018 3021 3025 3028 3031 3033 3035 3037 3039 3040 3043 3044 3046 3047 3048 3049 3050 3052 3053 3055 3057 3059 3062 3064 3066 3068 3070 3073 3074 3076 3077 3079 3079 3080 3080
3017 3016 3015 3013 3012 3010 3009 3007 3004 3003 3001 2999 2997 2995 2994 2992 2990 2988 2986 2984 2983 2981 2979 2978 2976 2974 2973 2972 2971 2970 2969 2968 2967 2966 2965 2965 2965 2965 2964 2964 2963 2963 2963 2963 2962 2962 2962 2962 2963 2964 2965 2966 2968 2970 2973 2976 2978 2980 2982 2985 2987 2990 2994 2998 3002 3005 3008 3012 3015 3019 3022 3025 3028 3030 3033 3035 3037 3038 3040 3042 3044 3044 3045 3047 3049 3050 3050 3052 3054 3057 3059 3062 3064 3066 3068 3071 3073 3074 3075 3077 3078 3078 3079
3016 3015 3013 3012 3010 3008 3007 3005 3003 3001 2999 2997 2995 2994 2992 2990 2989 2986 2984 2982 2980 2978 2976 2975 2974 2972 2971 2969 2969 2968 2967 2966 2964 2964 2963 2962 2962 2962 2962 2962 2961 2960 2960 2960 2960 2959 2959 2959 2960 2961 2962 2964 2965 2967 2970 2973 2975 2977 2979 2982 2984 2987 2991 2995 2999 3002 3006 3009 3013 3016 3019 3023 3026 3028 3030 3033 3035 3036 3037 3040 3042 3043 3043 3046 3049 3050 3049 3051 3053 3055 3057 3060 3062 3064 3066 3069 3071 3072 3074 3075 3076 3076 3077
3015 3013 3012 3010 3009 3007 3005 3003 3001 2999 2998 2996 2994 2992 2991 2989 2987 2985 2983 2981 2979 2976 2974 2972 2971 2970 2969 2967 2967 2966 2965 2964 2962 2961 2960 2960 2960 2959 2959 2959 2959 2958 2958 2958 2957 2957 2957 2957 2957 2958 2959 2961 2962 2964 2967 2969 2972 2974 2977 2980 2981 2984 2988 2992 2996 2999 3003 3007 3010 3014 3017 3021 3023 3025 3027 3030 3032 3034 3035 3037 3039 3040 3041 3043 3046 3049 3049 3049 3050 3052 3055 3058 3060 3062 3065 3067 3069 3070 3072 3074 3074 3075 3076
3014 3012 3010 3009 3007 3005 3004 3002 3000 2999 2997 2995 2993 2991 2989 2987 2985 2983 2981 2979 2977 2975 2973 2970 2969 2967 2966 2965 2964 2964 2964 2962 2961 2959 2959 2958 2958 2958 2956 2956 2955 2956 2955 2955 2955 2954 2954 2954 2955 2956 2957 2958 2959 2961 2964 2967 2969 2971 2974 2977 2979 2981 2985 2989 2993 2997 3001 3004 3008 3012 3015 3019 3021 3023 3025 3028 3030 3032 3033 3035 3037 3038 3040 3039 3043 3048 3049 3047 3048 3050 3054 3056 3059 3061 3064 3065 3067 3069 3070 3073 3074 3074 3075
3012 3011 3009 3007 3006 3004 3002 3001 2999 2997 2995 2994 2992 2990 2988 2985 2983 2981 2979 2977 2975 2973 2971 2969 2967 2964 2963 2963 2962 2961 2961 2960 2959 2958 2958 2956 2956 2956 2955 2954 2953 2953 2953 2953 2953 2953 2953 2953 2953 2954 2955 2956 2957 2959 2961 2964 2967 2969 2971 2975 2977 2979 2983 2986 2990 2994 2998 3002 3006 3009 3013 3016 3019 3020 3023 3026 3029 3031 3033 3034 3035 3036 3037 3038 3041 3046 3047 3046 3046 3049 3052 3055 3057 3059 3062 3064 3065 3067 3069 3071 3072 3073 3074
3011 3009 3008 3006 3004 3003 3001 2999 2998 2996 2994 2992 2990 2988 2986 2984 2981 2979 2977 2975 2974 2971 2969 2967 2965 2963 2961 2960 2960 2959 2959 2959 2958 2957 2956 2956 2955 2954 2954 2953 2952 2952 2951 2951 2950 2950 2952 2953 2954 2954 2954 2954 2955 2957 2959 2962 2964 2967 2970 2974 2975 2976 2980 2984 2988 2992 2996 3000 3004 3007 3011 3014 3016 3018 3021 3024 3027 3029 3031 3033 3035 3036 3034 3035 3039 3043 3044 3044 3044 3047 3050 3053 3055 3058 3060 3062 3063 3065 3067 3069 3070 3071 3072
3010 3008 3006 3004 3003 3001 2999 2998 2996 2994 2993 2990 2988 2986 2984 2981 2979 2977 2975 2974 2972 2970 2968 2965 2964 2962 2960 2959 2958 2957 2956 2956 2956 2956 2955 2955 2954 2953 2952 2952 2951 2951 2950 2950 2949 2950 2951 2953 2954 2954 2953 2953 2954 2955 2957 2960 2963 2966 2969 2972 2973 2974 2978 2982 2986 2990 2994 2998 3001 3005 3009 3012 3015 3017 3019 3022 3024 3027 3029 3031 3034 3036 3035 3035 3038 3040 3041 3041 3043 3046 3049 3052 3054 3057 3059 3060 3061 3063 3065 3067 3069 3069 3071
3009 3007 3005 3004 3002 3000 2999 2997 2995 2994 2992 2989 2987 2984 2982 2980 2978 2976 2974 2972 2971 2969 2966 2964 2962 2960 2959 2957 2955 2954 2954 2954 2954 2954 2954 2954 2953 2953 2951 2951 2950 2950 2950 2950 2949 2949 2951 2952 2951 2951 2951 2952 2952 2954 2956 2959 2962 2966 2969 2970 2971 2973 2977 2980 2984 2988 2992 2996 3000 3004 3008 3011 3014 3016 3018 3020 3022 3024 3027 3029 3032 3034 3036 3035 3037 3039 3039 3039 3043 3046 3048 3050 3053 3055 3057 3059 3060 3062 3064 3065 3066 3068 3069
3009 3007 3005 3003 3001 2999 2998 2996 2995 2993 2991 2989 2987 2984 2981 2979 2977 2974 2973 2971 2970 2968 2965 2963 2960 2959 2957 2955 2954 2953 2953 2953 2953 2953 2952 2952 2952 2952 2951 2951 2950 2949 2949 2949 2949 2948 2949 2948 2947 2947 2949 2950 2951 2953 2955 2959 2961 2964 2968 2968 2969 2971 2974 2978 2982 2986 2990 2994 2999 3003 3006 3009 3012 3014 3016 3018 3020 3022 3024 3027 3029 3032 3035 3038 3039 3038 3037 3038 3041 3044 3046 3049 3052 3054 3057 3058 3059 3060 3061 3063 3065 3066 3068
3008 3006 3004 3003 3001 2999 2998 2996 2994 2992 2990 2988 2986 2984 2981 2978 2976 2974 2972 2970 2969 2967 2964 2961 2959 2957 2956 2955 2954 2952 2951 2950 2951 2951 2951 2950 2950 2951 2951 2950 2949 2949 2949 2948 2947 2945 2944 2944 2944 2945 2946 2949 2950 2952 2955 2958 2959 2961 2965 2966 2967 2969 2973 2977 2981 2985 2989 2993 2997 3001 3004 3007 3009 3012 3014 3015 3017 3020 3022 3025 3027 3029 3033 3036 3038 3037 3036 3038 3040 3042 3045 3047 3050 3053 3056 3057 3058 3058 3059 3062 3064 3066 3067
3007 3005 3004 3002 3000 2999 2997 2995 2993 2991 2989 2987 2985 2983 2980 2978 2975 2973 2971 2969 2968 2966 2963 2960 2958 2956 2955 2954 2953 2951 2950 2949 2949 2949 2950 2949 2949 2949 2949 2949 2948 2947 2947 2946 2944 2943 2944 2944 2945 2945 2946 2948 2949 2951 2955 2958 2959 2960 2962 2964 2966 2969 2972 2976 2980 2984 2988 2992 2995 2999 3003 3005 3008 3010 3011 3013 3015 3018 3021 3023 3025 3027 3028 3032 3034 3034 3034 3036 3039 3041 3044 3046 3049 3052 3054 3055 3055 3056 3059 3061 3063 3065 3066
3006 3004 3003 3001 3000 2998 2996 2994 2993 2990 2988 2986 2984 2982 2979 2976 2974 2973 2971 2969 2967 2965 2962 2960 2958 2956 2955 2954 2952 2951 2949 2949 2948 2948 2948 2948 2948 2948 2948 2947 2947 2946 2945 2943 2942 2941 2943 2944 2945 2947 2949 2948 2949 2951 2954 2956 2958 2959 2961 2964 2966 2969 2971 2975 2979 2983 2986 2990 2994 2998 3001 3004 3007 3009 3010 3012 3014 3017 3019 3022 3024 3025 3026 3029 3032 3033 3033 3035 3038 3040 3043 3045 3048 3050 3052 3053 3054 3055 3058 3060 3062 3064 3065
3005 3004 3002 3000 2999 2997 2996 2994 2992 2989 2987 2985 2983 2980 2978 2975 2974 2972 2970 2968 2966 2964 2962 2959 2957 2956 2954 2953 2952 2950 2949 2948 2948 2948 2948 2947 2946 2946 2947 2946 2945 2945 2944 2942 2942 2942 2943 2944 2946 2949 2950 2949 2949 2951 2954 2955 2957 2959 2961 2963 2966 2969 2971 2974 2978 2982 2986 2990 2994 2997 3000 3003 3005 3007 3009 3011 3014 3016 3019 3020 3021 3023 3025 3029 3031 3031 3031 3033 3036 3039 3042 3045 3047 3048 3050 3051 3052 3055 3057 3059 3061 3063 3064
3004 3003 3001 3000 2998 2996 2995 2993 2991 2989 2987 2985 2982 2979 2977 2975 2973 2971 2969 2967 2966 2964 2961 2959 2957 2955 2954 2953 2951 2950 2949 2948 2948 2948 2947 2946 2945 2945 2946 2945 2944 2944 2943 2943 2943 2943 2943 2944 2946 2949 2951 2951 2951 2951 2954 2955 2957 2959 2961 2963 2966 2969 2971 2974 2978 2981 2985 2989 2993 2996 2999 3002 3004 3006 3007 3009 3011 3014 3016 3018 3019 3020 3024 3028 3028 3028 3029 3032 3035 3038 3041 3043 3045 3046 3049 3049 3051 3054 3056 3058 3059 3061 3062